AirNav   Bose ProFlight Series 2 Headset
 
 539 users online  

29D Grove City Airport
Grove City, Pennsylvania, USA

GOING TO GROVE CITY?


FAA INFORMATION EFFECTIVE 02 JANUARY 2020

Location

FAA Identifier: 29D
Lat/Long: 41-08-45.7000N 080-10-03.9000W
41-08.761667N 080-10.065000W
41.1460278,-80.1677500
(estimated)
Elevation: 1370 ft. / 417.6 m (surveyed)
Variation: 09W (2010)
From city: 3 miles W of GROVE CITY, PA
Time zone: UTC -5 (UTC -4 during Daylight Saving Time)
Zip code: 16137

Airport Operations

Airport use: Open to the public
Activation date: 02/1975
Control tower: no
ARTCC: CLEVELAND CENTER
FSS: ALTOONA FLIGHT SERVICE STATION
NOTAMs facility: AOO (NOTAM-D service available)
Attendance: MON-FRI 0900-1700
UNATNDD THANKSGIVING, CHRISTMAS & NEW YEAR'S DAY.
Wind indicator: lighted
Segmented circle: yes
Lights: ACTVT MIRL RY 10/28 - CTAF.
Beacon: white-green (lighted land airport)
Operates sunset to sunrise.

Airport Communications

CTAF/UNICOM: 122.725
YOUNGSTOWN APPROACH: 133.95
YOUNGSTOWN DEPARTURE: 133.95
WX AWOS-3PT at UCP (13 nm SW): 124.175 ((724) 652-4184)
WX AWOS-3PT at FKL (20 nm NE): 118.175 ((814) 437-2066)
  • APCH/DEP SVC PRVDD BY CLEVELAND ARTCC (ZOB) ON FREQS 120.775/298.95 (CHARDON RCAG) WHEN YOUNGSTOWN APCH CTL CLSD.
  • ELLWOOD CITY RCO 122.1R 115.8T (ALTOONA RADIO)

Nearby radio navigation aids

VOR radial/distance  VOR name  Freq  Var
EWCr014/19.4ELLWOOD CITY VOR/DME115.8008W
FKLr225/(22.5)FRANKLIN VOR109.6006W
YNGr121/25.4YOUNGSTOWN VORTAC109.0005W
CIPr276/32.1CLARION VOR/DME112.9006W

 
NDB name  Hdg/Dist  Freq  Var  ID
CASTLE066/13.427209WUCP ..- -.-. .--.

Airport Services

Fuel available: 100LL JET-A
24 HR FUEL AVBL WITH CREDIT CARD.
JET-A ANTI-ICE INHIBITOR AVBL ON REQ.
Parking: hangars and tiedowns
Bottled oxygen: NONE

Runway Information

Runway 10/28

Dimensions: 4500 x 75 ft. / 1372 x 23 m
Surface: asphalt, in fair condition
Weight bearing capacity: 
Single wheel: 12.5
Runway edge lights: medium intensity
Runway edge markings: RY MARKINGS ARE FADED.
RUNWAY 10  RUNWAY 28
Latitude: 41-08.776833N41-08.748333N
Longitude: 080-10.555333W080-09.575667W
Elevation: 1370.0 ft.1297.0 ft.
Traffic pattern: leftleft
Runway heading: 101 magnetic, 092 true281 magnetic, 272 true
Markings: nonprecision, in fair conditionnonprecision, in fair condition
Visual slope indicator: 2-light PAPI on left (3.80 degrees glide path)
RWY 10 PAPI UNUSABLE BEYOND 5 DEGREES LEFT OF RUNWAY CENTERLINE.
2-light PAPI on left (3.00 degrees glide path)
Runway end identifier lights: yesyes
Touchdown point: yes, no lightsyes, no lights
Obstructions: 15 ft. brush, 420 ft. from runway, 1 ft. left of centerline, 14:1 slope to clearnone

Airport Ownership and Management from official FAA records

Ownership: Publicly-owned
Owner: BOROUGH OF GROVE CITY
123 W MAIN ST. P.O. BOX 110
GROVE CITY, PA 16127
Phone 724-458-7060
Manager: MICHAEL BAUN
40 OAKLEY KELLY DRIVE
MERCER, PA 16137-8411
Phone 724-748-5530

Airport Operational Statistics

Aircraft based on the field: 18
Single engine airplanes: 10
Multi engine airplanes: 3
Jet airplanes: 1
Helicopters: 2
Ultralights: 2
    
Aircraft operations: avg 35/day *
80% local general aviation
20% transient general aviation
<1% military
<1% air taxi
* for 12-month period ending 05 September 2019

Additional Remarks

DEER & GEESE ON AND INVOF ARPT.
DRAINAGE RAVINE 15 FT DEEP LCTD IN SAFETY AREA NORTH OF RY 10.
TWY LGTS STUB TO APRON.
AVOID OVERFLYING FLD DURG DALGT VFR BECAUSE OF PARACHUTE JUMPING ACTIVITY NW CORNER OF FLD.
FOR APCH/DEP CTC CLEVELAND ARTCC AT 440-774-0227 WHEN YOUNGSTOWN APCH CTL CLSD.
PORTABLE GROUND PWR UNIT AVBL.

Instrument Procedures

NOTE: All procedures below are presented as PDF files. If you need a reader for these files, you should download the free Adobe Reader.

NOT FOR NAVIGATION. Please procure official charts for flight.
FAA instrument procedures published for use from 02 January 2020 at 0901Z to 30 January 2020 at 0900Z.

 
IAPs - Instrument Approach Procedures
RNAV (GPS) RWY 10   download (168KB)
RNAV (GPS) RWY 28   download (176KB)
VOR-A **NEW**   download (151KB)
NOTE: Special Take-Off Minimums/Departure Procedures apply **CHANGED**   download (477KB)

Other nearby airports with instrument procedures:

KUCP - New Castle Municipal Airport (13 nm SW)
KFKL - Venango Regional Airport (20 nm NE)
KPJC - Zelienople Municipal Airport (21 nm S)
4G1 - Greenville Municipal Airport (21 nm NW)
KYNG - Youngstown-Warren Regional Airport (24 nm W)
 
Loc | Ops | Rwys | IFR | FBO | Links
Com | Nav | Svcs | Stats | Notes
Area around 29D (Grove City Airport)
 
Road maps at: MapQuest Bing Google
 
Aerial photo
WARNING: Photo may not be current or correct
Aerial photo of 29D (Grove City Airport)
Photo by Bill Pixley
Photo taken 20-Aug-2017
looking west-northwest.

Do you have a better or more recent aerial photo of Grove City Airport that you would like to share? If so, please send us your photo.

 
Sectional chart

 
Airport distance calculator
Flying to Grove City Airport? Find the distance to fly.

From to 29D

Sunrise and sunset
Times for 22-Jan-2020
 Local
(UTC-5)
 Zulu
(UTC)
Morning civil twilight07:1112:11
Sunrise07:4112:41
Sunset17:2422:24
Evening civil twilight17:5422:54

Current date and time
Zulu (UTC)  22-Jan-2020 09:06:28
Local (UTC-5)  22-Jan-2020 04:06:28
 
METAR
KUCP 
13nm SW 
220856Z AUTO 00000KT 10SM CLR M13/M15 A3043 RMK AO2 SLP342 6//// T11331150 58007 PNO $
KFKL 
19nm NE 
220856Z AUTO 23004KT 10SM CLR M12/M13 A3038 RMK AO2 SLP319 T11221133 56007 FZRANO
KPJC 
21nm S 
220856Z AUTO 00000KT 10SM CLR M13/M14 A3044 RMK AO2
KYNG 
23nm W 
220851Z 19005KT 10SM FEW150 M11/M13 A3040 RMK AO2 SLP315 T11061133 58008 $
KBTP 
25nm SE 
220856Z AUTO 00000KT 10SM CLR M13/M14 A3042 RMK AO2 SLP330 T11281139 56010 FZRANO
KBVI 
25nm SW 
220855Z AUTO 21003KT 10SM CLR M08/M11 A3040 RMK AO2 T10851111
TAF
KFKL 
19nm NE 
220520Z 2206/2306 21005KT P6SM SKC
KYNG 
23nm W 
220520Z 2206/2306 18006KT P6SM BKN250
NOTAMs
Click for the latest NOTAMs
NOTAMs are issued by the DoD/FAA and will open in a separate window not controlled by AirNav.

 

 
 

FBO, Fuel Providers, and Aircraft Ground Support

  
 Business Name 
 
 Contact 
 
 Services / Description 
 
Fuel Prices
 
Comments
  
Silent Wings Soaring 724-748-5530
no information available

If you are affiliated with Silent Wings Soaring and would like to show here your services, contact info, web link, logo, and more, click here
100LL Jet A
FS $5.45 $4.00 
 Updated 21-Jan-2020
 
   write
FS=Full service
Update Fuel Prices
 

Aviation Businesses, Services, and Facilities

  
 Business Name 
 
 Contact 
 
 Services / Description 
 
Distance
 
Comments
  
Quality Avionics Inc. 724-748-5750
[email]
Avionics sales and service, Aviation accessories
 
FAA-Approved Repair Station   Avidyne   Garmin   S-TEC  
 
More info about Quality Avionics Inc.
on airport  
   2 read write
 

Would you like to see your business listed on this page?

 If your business provides an interesting product or service to pilots, flight crews, aircraft, or users of the Grove City Airport, you should consider listing it here.  To start the listing process, click on the button below
 
Add a business
 

Other Pages about Grove City Airport

Update a link
 
Copyright © AirNav, LLC. All rights reserved. Privacy Policy  Contact